User: anonymous   Login
Location: Young's Pond
(41.2695°N, 72.7766°W)
Time: 13:13:47
(UTC-04:00)
Language:

Spot 4 - Orbit

View from above orbital plane
View from above orbital plane
View from above satellite
View from above satellite

Ground track
Ground track

The orbit data is extracted from the following two-line orbital elements,

1 25260U 98017A   15116.22677585  .00000555  00000-0  14492-3 0  9994
2 25260 098.4179 187.2616 0013682 152.8165 207.3750 14.53246534888122
Epoch (UTC): 26 April 2015 05:26:33
Eccentricity: 0.0013682
inclination: 98.4179°
perigee height: 705 km
apogee height: 725 km
right ascension of ascending node: 187.2616°
argument of perigee: 152.8165°
revolutions per day: 14.53246534
mean anomaly at epoch: 207.3750°
orbit number at epoch: 88812

The dashed part of the orbit path shows where the satellite is in the earth's shadow,  

DLR